Chipley, FL

8:18 PM CDT on April 23, 2018 (GMT -0500)
Chipley

Weather History for KVSH - February, 2014

Change the Weather History Date:

Saturday, February 8, 2014

  Actual Average (KDHN) Record (KDHN)
Temperature  
Mean Temperature - -  
Max Temperature - 61 °F 131 °F (2000)
Min Temperature - 36 °F 23 °F (1951)
Moisture  
Dew Point -    
Average Humidity    
Maximum Humidity    
Minimum Humidity    
Precipitation  
Precipitation 0.00 in - - ()
Sea Level Pressure  
Sea Level Pressure 30.19 in    
Wind  
Wind Speed 4 mph (NE)    
Max Wind Speed 8 mph    
Max Gust Speed -    
Visibility 10 miles    
Events      
Averages and records for this station are not official NWS values.
T = Trace of Precipitation, MM = Missing Value Source: NWS Daily Summary

Daily Weather History Graph

Daily Weather History Graph

Search for Another Location

Airport or City:

Astronomy

Feb. 08, 2014 Rise Set
Actual Time 6:29 AM CST 5:24 PM CST
Civil Twilight 6:04 AM CST 5:49 PM CST
Nautical Twilight 5:35 AM CST 6:18 PM CST
Astronomical Twilight 5:07 AM CST 6:46 PM CST
Moon 12:24 PM CST (2/8) 1:35 AM CST (2/8)
Length of Visible Light 11h 45m
Length of Day
10h 55m
Waxing Gibbous, 69% of the Moon is Illuminated
Feb 8
Waxing Gibbous
Feb 14
Full
Feb 22
Last Quarter
Mar 1
New
Mar 8
First Quarter

Hourly Weather History & Observations

Time (CST) Temp. Dew Point Humidity Pressure Visibility Wind Dir Wind Speed Gust Speed Precip Events Conditions
12:15 AM - - N/A% 30.21 in 10.0 mi NNE 4.6 mph - N/A   Overcast
12:35 AM - - N/A% 30.20 in 10.0 mi North 5.8 mph - N/A   Overcast
12:55 AM - - N/A% 30.21 in 10.0 mi NNE 4.6 mph - N/A   Mostly Cloudy
1:15 AM - - N/A% 30.22 in 10.0 mi Calm Calm - N/A   Partly Cloudy
1:35 AM - - N/A% 30.23 in 10.0 mi Calm Calm - N/A   Clear
1:55 AM - - N/A% 30.21 in 10.0 mi North 8.1 mph - N/A   Clear
2:15 AM - - N/A% 30.22 in 10.0 mi NNE 3.5 mph - N/A   Clear
2:35 AM - - N/A% 30.21 in 10.0 mi NNE 5.8 mph - N/A   Mostly Cloudy
2:55 AM - - N/A% 30.22 in 10.0 mi North 6.9 mph - N/A   Overcast
3:15 AM - - N/A% 30.21 in 10.0 mi North 6.9 mph - N/A   Overcast
3:35 AM - - N/A% 30.19 in 10.0 mi North 4.6 mph - N/A   Mostly Cloudy
3:55 AM - - N/A% 30.19 in 10.0 mi North 5.8 mph - N/A   Partly Cloudy
4:15 AM - - N/A% 30.19 in 10.0 mi NNE 6.9 mph - N/A   Clear
4:35 AM - - N/A% 30.20 in 10.0 mi North 6.9 mph - N/A   Clear
4:55 AM - - N/A% 30.20 in 10.0 mi NNE 5.8 mph - N/A   Partly Cloudy
5:15 AM - - N/A% 30.20 in 10.0 mi NNE 6.9 mph - N/A   Partly Cloudy
5:35 AM - - N/A% 30.21 in 10.0 mi NNE 3.5 mph - N/A   Scattered Clouds
5:55 AM - - N/A% 30.21 in 10.0 mi NNE 4.6 mph - N/A   Mostly Cloudy
6:15 AM - - N/A% 30.21 in 10.0 mi NE 6.9 mph - N/A   Scattered Clouds
6:35 AM - - N/A% 30.21 in 10.0 mi NE 6.9 mph - N/A   Clear
6:55 AM - - N/A% 30.22 in 10.0 mi NNE 3.5 mph - N/A   Clear
7:15 AM - - N/A% 30.22 in 10.0 mi NE 3.5 mph - N/A   Clear
7:35 AM - - N/A% 30.22 in 10.0 mi NE 8.1 mph - N/A   Clear
7:55 AM - - N/A% 30.21 in 10.0 mi ENE 4.6 mph - N/A   Clear
8:15 AM - - N/A% 30.22 in 10.0 mi NE 5.8 mph - N/A   Clear
8:35 AM - - N/A% 30.23 in 10.0 mi Calm Calm - N/A   Scattered Clouds
8:55 AM - - N/A% 30.24 in 10.0 mi NE 3.5 mph - N/A   Overcast
9:15 AM - - N/A% 30.24 in 10.0 mi Calm Calm - N/A   Scattered Clouds
9:35 AM - - N/A% 30.24 in 10.0 mi NE 6.9 mph - N/A   Clear
9:55 AM - - N/A% 30.23 in 10.0 mi East 6.9 mph - N/A   Clear
10:15 AM - - N/A% 30.24 in 10.0 mi Calm Calm - N/A   Clear
10:35 AM - - N/A% 30.24 in 10.0 mi SSE 3.5 mph - N/A   Clear
10:55 AM - - N/A% 30.24 in 10.0 mi Calm Calm - N/A   Mostly Cloudy
11:15 AM - - N/A% 30.24 in 10.0 mi Calm Calm - N/A   Overcast
11:35 AM - - N/A% 30.23 in 10.0 mi NNE 4.6 mph - N/A   Overcast
11:55 AM - - N/A% 30.22 in 10.0 mi ENE 3.5 mph - N/A   Overcast
12:15 PM - - N/A% 30.21 in 10.0 mi NE 4.6 mph - N/A   Overcast
12:35 PM - - N/A% 30.20 in 10.0 mi Calm Calm - N/A   Mostly Cloudy
12:55 PM - - N/A% 30.19 in 10.0 mi NE 3.5 mph - N/A   Clear
1:15 PM - - N/A% 30.17 in 10.0 mi Calm Calm - N/A   Clear
1:35 PM - - N/A% 30.16 in 10.0 mi Calm Calm - N/A   Clear
1:55 PM - - N/A% 30.16 in 10.0 mi Calm Calm - N/A   Scattered Clouds
2:15 PM - - N/A% 30.15 in 10.0 mi Calm Calm - N/A   Overcast
2:35 PM - - N/A% 30.15 in 10.0 mi North 5.8 mph - N/A   Overcast
2:55 PM - - N/A% 30.14 in 10.0 mi North 5.8 mph - N/A   Overcast
3:15 PM - - N/A% 30.14 in 10.0 mi North 4.6 mph - N/A   Overcast
3:35 PM - - N/A% 30.13 in 10.0 mi North 4.6 mph - N/A   Scattered Clouds
3:55 PM - - N/A% 30.14 in 10.0 mi North 4.6 mph - N/A   Mostly Cloudy
4:15 PM - - N/A% 30.14 in 10.0 mi NNE 4.6 mph - N/A   Overcast
4:35 PM - - N/A% 30.14 in 10.0 mi North 5.8 mph - N/A   Overcast
4:55 PM - - N/A% 30.15 in 10.0 mi NE 4.6 mph - N/A   Overcast
5:15 PM - - N/A% 30.15 in 10.0 mi NNE 3.5 mph - N/A   Mostly Cloudy
5:35 PM - - N/A% 30.15 in 10.0 mi Calm Calm - N/A   Partly Cloudy
5:55 PM - - N/A% 30.15 in 10.0 mi SE 3.5 mph - N/A   Mostly Cloudy
6:15 PM - - N/A% 30.15 in 10.0 mi SE 4.6 mph - N/A   Overcast
6:35 PM - - N/A% 30.16 in 10.0 mi SE 5.8 mph - N/A   Overcast
6:55 PM - - N/A% 30.17 in 10.0 mi SSE 5.8 mph - N/A   Mostly Cloudy
7:15 PM - - N/A% 30.17 in 10.0 mi SSE 4.6 mph - N/A   Mostly Cloudy
7:35 PM - - N/A% 30.17 in 10.0 mi SSE 6.9 mph - N/A   Partly Cloudy
7:55 PM - - N/A% 30.17 in 10.0 mi SE 5.8 mph - N/A   Partly Cloudy
8:15 PM - - N/A% 30.17 in 10.0 mi SE 4.6 mph - N/A   Clear
8:35 PM - - N/A% 30.17 in 10.0 mi SSE 4.6 mph - N/A   Mostly Cloudy
8:55 PM - - N/A% 30.16 in 10.0 mi SSE 3.5 mph - N/A   Overcast
9:15 PM - - N/A% 30.17 in 10.0 mi SSE 3.5 mph - N/A   Partly Cloudy
9:35 PM - - N/A% 30.17 in 10.0 mi SSE 4.6 mph - N/A   Partly Cloudy
9:55 PM - - N/A% 30.17 in 10.0 mi SSE 4.6 mph - N/A   Mostly Cloudy
10:15 PM - - N/A% 30.17 in 10.0 mi Calm Calm - N/A   Overcast
10:35 PM - - N/A% 30.17 in 10.0 mi South 3.5 mph - N/A   Scattered Clouds
10:55 PM - - N/A% 30.17 in 10.0 mi SSE 3.5 mph - N/A   Mostly Cloudy
11:15 PM - - N/A% 30.18 in 10.0 mi SSE 3.5 mph - N/A   Overcast
11:35 PM - - N/A% 30.18 in 10.0 mi Calm Calm - N/A   Overcast
11:55 PM - - N/A% 30.17 in 10.0 mi SSE 4.6 mph - N/A   Overcast